{"data":{"norad_id":33320,"intl_designator":"2008-041A","name":"HUANJING 1A (HJ-1A)","alt_names":[],"object_type":"PAYLOAD","status":"ACTIVE","operator":null,"country":"PRC","launch_date":"2008-09-06","launch_site_code":"TAISC","launch_vehicle":null,"mission":null,"orbit_class":"UNKNOWN","rcs_meters":1.466,"size_class":null,"mass_kg":null,"dimensions":null,"purposes":["earth_obs"],"wikipedia_slug":null,"has_3d_model":false,"image_url":null,"decayed_at":null,"tle_current":{"epoch":"2026-05-25T04:09:12.532608Z","epoch_age_seconds":55984,"freshness":"FRESH","line1":"1 33320U 08041A   26145.17306172  .00000901  00000+0  11439-3 0  9999","line2":"2 33320  97.6678 131.9043 0017977 210.3726 149.6449 14.83924756954991","mean_motion":14.83924756,"eccentricity":0.0017977,"inclination_deg":97.6678,"raan_deg":131.9043,"arg_perigee_deg":210.3726,"mean_anomaly_deg":149.6449,"bstar":0.00011439,"rev_number":95499,"period_min":97.039960697306,"perigee_km":604.38780919766,"apogee_km":629.53799137915,"semimajor_km":6995.0999002884,"source":"CELESTRAK","updated_at":"2026-05-25T13:38:13.162649Z"}}}